When you browse on this site, cookies collect data to enhance your experience and personalize the content and advertising you see.
Visit our Privacy Policy to learn more. By continuing to use the site, you agree to this use of cookies and data.
  • In Hungary
  • List of Countries
  • For 7 days
  • Water Temperature
  • Satellite Maps
  • Weather Map
  • News
  • Weather Widgets
  • user-avatar
    Login

    Hourly Weather Zalas

    Today, 25 May, Saturday

    Time Temperature Precipitation Wind Pressure Humidity
    00:00 +11°C° 0 mm 1 mps 731 mmHg 90%
    01:00 +11°C° 0 mm 1 mps 731 mmHg 90%
    02:00 +10°C° 0 mm 1 mps 731 mmHg 90%
    03:00 +10°C° 0 mm 1 mps 731 mmHg 90%
    04:00 +10°C° 0 mm 1 mps 731 mmHg 90%
    05:00 +10°C° 0 mm 2 mps 731 mmHg 84%
    06:00 +13°C° 0 mm 2 mps 731 mmHg 79%
    07:00 +15°C° 0 mm 2 mps 731 mmHg 69%
    08:00 +16°C° 0 mm 2 mps 732 mmHg 63%
    09:00 +18°C° 0 mm 2 mps 732 mmHg 57%
    10:00 +20°C° 0 mm 2 mps 732 mmHg 50%
    11:00 +20°C° 0 mm 2 mps 732 mmHg 50%
    12:00 +21°C° 0 mm 2 mps 732 mmHg 50%
    13:00 +21°C° 0 mm 2 mps 731 mmHg 49%
    14:00 +21°C° 0 mm 2 mps 731 mmHg 51%
    15:00 +21°C° 0 mm 2 mps 731 mmHg 52%
    16:00 +21°C° 0 mm 2 mps 731 mmHg 54%
    17:00 +20°C° 0.1 mm 2 mps 731 mmHg 60%
    18:00 +18°C° 0.1 mm 2 mps 731 mmHg 66%
    19:00 +18°C° 0.1 mm 1 mps 731 mmHg 72%
    20:00 +16°C° 0 mm 1 mps 731 mmHg 76%
    21:00 +15°C° 0 mm 1 mps 732 mmHg 80%
    22:00 +13°C° 0 mm 1 mps 732 mmHg 84%
    23:00 +13°C° 0 mm 1 mps 732 mmHg 85%

    Tomorrow, 26 May, Sunday

    Time Temperature Precipitation Wind Pressure Humidity
    00:00 +13°C° 0 mm 1 mps 732 mmHg 86%
    01:00 +13°C° 0 mm 1 mps 732 mmHg 87%
    02:00 +12°C° 0 mm 1 mps 732 mmHg 88%
    03:00 +12°C° 0 mm 1 mps 732 mmHg 89%
    04:00 +12°C° 0 mm 1 mps 732 mmHg 90%
    05:00 +13°C° 0 mm 1 mps 732 mmHg 86%
    06:00 +15°C° 0 mm 1 mps 732 mmHg 82%
    07:00 +16°C° 0 mm 2 mps 733 mmHg 78%
    08:00 +18°C° 0 mm 2 mps 733 mmHg 74%
    09:00 +19°C° 0 mm 2 mps 732 mmHg 69%
    10:00 +20°C° 0 mm 3 mps 732 mmHg 65%
    11:00 +21°C° 0.1 mm 3 mps 732 mmHg 62%
    12:00 +22°C° 0.1 mm 3 mps 732 mmHg 59%
    13:00 +22°C° 0.1 mm 3 mps 732 mmHg 57%
    14:00 +22°C° 0.4 mm 3 mps 732 mmHg 60%
    15:00 +22°C° 0.4 mm 3 mps 732 mmHg 64%
    16:00 +22°C° 0.4 mm 3 mps 731 mmHg 67%
    17:00 +20°C° 0.6 mm 3 mps 731 mmHg 73%
    18:00 +19°C° 0.6 mm 3 mps 731 mmHg 78%
    19:00 +18°C° 0.6 mm 2 mps 731 mmHg 84%
    20:00 +17°C° 0 mm 2 mps 731 mmHg 86%
    21:00 +16°C° 0 mm 2 mps 731 mmHg 88%
    22:00 +15°C° 0 mm 2 mps 732 mmHg 90%
    23:00 +15°C° 0 mm 2 mps 731 mmHg 91%

    Day after tomorrow, 27 May, Monday

    Time Temperature Precipitation Wind Pressure Humidity
    00:00 +14°C° 0 mm 2 mps 731 mmHg 91%
    01:00 +14°C° 0 mm 2 mps 731 mmHg 91%
    02:00 +14°C° 0 mm 2 mps 731 mmHg 91%
    03:00 +13°C° 0 mm 2 mps 731 mmHg 91%
    04:00 +13°C° 0 mm 1 mps 731 mmHg 91%
    05:00 +15°C° 0 mm 2 mps 731 mmHg 87%
    06:00 +17°C° 0 mm 2 mps 731 mmHg 83%
    07:00 +19°C° 0 mm 2 mps 731 mmHg 79%
    08:00 +20°C° 0.2 mm 2 mps 731 mmHg 73%
    09:00 +21°C° 0.2 mm 3 mps 731 mmHg 68%
    10:00 +23°C° 0.2 mm 4 mps 731 mmHg 62%
    11:00 +23°C° 0.6 mm 4 mps 731 mmHg 63%
    12:00 +23°C° 0.6 mm 4 mps 731 mmHg 63%
    13:00 +25°C° 0.6 mm 4 mps 731 mmHg 63%
    14:00 +23°C° 0.3 mm 4 mps 730 mmHg 66%
    15:00 +22°C° 0.3 mm 3 mps 730 mmHg 69%
    16:00 +22°C° 0.3 mm 3 mps 730 mmHg 73%
    17:00 +21°C° 0 mm 2 mps 730 mmHg 75%
    18:00 +20°C° 0 mm 2 mps 730 mmHg 77%
    19:00 +20°C° 0 mm 1 mps 729 mmHg 78%
    20:00 +19°C° 0 mm 1 mps 729 mmHg 81%
    21:00 +18°C° 0 mm 1 mps 729 mmHg 84%
    22:00 +16°C° 0 mm 1 mps 729 mmHg 87%
    23:00 +16°C° 0.2 mm 1 mps 729 mmHg 88%

    28 May, Tuesday

    Time Temperature Precipitation Wind Pressure Humidity
    00:00 +16°C° 0.2 mm 1 mps 729 mmHg 89%
    01:00 +16°C° 0.2 mm 1 mps 728 mmHg 90%
    02:00 +16°C° 0.4 mm 1 mps 728 mmHg 91%
    03:00 +16°C° 0.4 mm 1 mps 728 mmHg 93%
    04:00 +16°C° 0.4 mm 1 mps 727 mmHg 94%
    05:00 +18°C° 0.1 mm 1 mps 727 mmHg 90%
    06:00 +19°C° 0.1 mm 1 mps 727 mmHg 87%
    07:00 +21°C° 0.1 mm 1 mps 727 mmHg 84%
    08:00 +21°C° 0.2 mm 2 mps 727 mmHg 76%
    09:00 +23°C° 0.2 mm 2 mps 727 mmHg 68%
    10:00 +25°C° 0.2 mm 3 mps 726 mmHg 61%
    11:00 +25°C° 0 mm 3 mps 726 mmHg 57%
    12:00 +26°C° 0 mm 3 mps 726 mmHg 53%
    13:00 +27°C° 0 mm 3 mps 725 mmHg 49%
    14:00 +25°C° 0.5 mm 3 mps 725 mmHg 60%
    15:00 +21°C° 0.5 mm 3 mps 724 mmHg 71%
    16:00 +19°C° 0.5 mm 3 mps 724 mmHg 83%
    17:00 +19°C° 0.1 mm 2 mps 724 mmHg 82%
    18:00 +19°C° 0.1 mm 1 mps 724 mmHg 82%
    19:00 +17°C° 0.1 mm 0 mps 724 mmHg 82%
    20:00 +18°C° 0.5 mm 1 mps 724 mmHg 84%
    21:00 +18°C° 0.5 mm 1 mps 724 mmHg 86%
    22:00 +16°C° 0.5 mm 1 mps 724 mmHg 88%
    23:00 +15°C° 0.1 mm 2 mps 724 mmHg 90%

    29 May, Wednesday

    Time Temperature Precipitation Wind Pressure Humidity
    00:00 +15°C° 0.1 mm 2 mps 724 mmHg 93%
    01:00 +14°C° 0.1 mm 2 mps 724 mmHg 95%
    02:00 +13°C° 0 mm 3 mps 725 mmHg 95%
    03:00 +13°C° 0 mm 3 mps 725 mmHg 95%
    04:00 +12°C° 0 mm 3 mps 725 mmHg 95%
    05:00 +12°C° 0.1 mm 3 mps 725 mmHg 94%
    06:00 +12°C° 0.1 mm 3 mps 726 mmHg 93%
    07:00 +11°C° 0.1 mm 4 mps 726 mmHg 93%
    08:00 +11°C° 0.1 mm 4 mps 727 mmHg 92%
    09:00 +11°C° 0.1 mm 4 mps 728 mmHg 91%
    10:00 +11°C° 0.1 mm 4 mps 728 mmHg 90%
    11:00 +11°C° 0.2 mm 4 mps 729 mmHg 89%
    12:00 +11°C° 0.2 mm 4 mps 729 mmHg 88%
    13:00 +11°C° 0.2 mm 4 mps 730 mmHg 88%
    14:00 +11°C° 0 mm 4 mps 730 mmHg 87%
    15:00 +11°C° 0 mm 4 mps 730 mmHg 86%
    16:00 +12°C° 0 mm 4 mps 731 mmHg 85%
    17:00 +11°C° 0.1 mm 3 mps 731 mmHg 86%
    18:00 +11°C° 0.1 mm 3 mps 732 mmHg 86%
    19:00 +10°C° 0.1 mm 3 mps 732 mmHg 87%
    20:00 +10°C° 0.6 mm 3 mps 732 mmHg 89%
    21:00 +10°C° 0.6 mm 2 mps 733 mmHg 90%
    22:00 +9°C° 0.6 mm 2 mps 733 mmHg 91%
    23:00 +9°C° 0.7 mm 2 mps 734 mmHg 91%

    30 May, Thursday

    Time Temperature Precipitation Wind Pressure Humidity
    00:00 +9°C° 0.7 mm 2 mps 734 mmHg 90%
    01:00 +8°C° 0.7 mm 2 mps 735 mmHg 90%
    02:00 +8°C° 0.4 mm 2 mps 735 mmHg 90%
    03:00 +8°C° 0.4 mm 1 mps 736 mmHg 90%
    04:00 +8°C° 0.4 mm 1 mps 736 mmHg 90%
    05:00 +8°C° 1 mm 1 mps 737 mmHg 90%
    06:00 +8°C° 1 mm 1 mps 737 mmHg 90%
    07:00 +8°C° 1 mm 1 mps 738 mmHg 90%
    08:00 +9°C° 0.4 mm 1 mps 738 mmHg 88%
    09:00 +9°C° 0.4 mm 1 mps 738 mmHg 86%
    10:00 +10°C° 0.4 mm 1 mps 738 mmHg 84%
    11:00 +11°C° 0.1 mm 1 mps 738 mmHg 80%
    12:00 +10°C° 0.1 mm 2 mps 739 mmHg 77%
    13:00 +12°C° 0.1 mm 2 mps 739 mmHg 73%
    14:00 +13°C° 0 mm 2 mps 738 mmHg 70%
    15:00 +13°C° 0 mm 2 mps 738 mmHg 66%
    16:00 +14°C° 0 mm 2 mps 738 mmHg 63%
    17:00 +13°C° 0 mm 1 mps 738 mmHg 67%
    18:00 +12°C° 0 mm 1 mps 738 mmHg 71%
    19:00 +11°C° 0 mm 1 mps 737 mmHg 75%
    20:00 +10°C° 0 mm 1 mps 737 mmHg 78%
    21:00 +9°C° 0 mm 1 mps 737 mmHg 81%
    22:00 +8°C° 0 mm 1 mps 737 mmHg 84%
    23:00 +8°C° 0 mm 1 mps 737 mmHg 85%
    Show more